Tracking 29487 objects as of 11-Sep-2024
HD Live streaming from Space Station
objects crossing your sky now

STARLINK-2078

Track STARLINK-2078 now!
10-day predictions
STARLINK-2078 is classified as:


NORAD ID: 47675
Int'l Code: 2021-012BH
Perigee: 553.1 km
Apogee: 555.8 km
Inclination: 53.1 °
Period: 95.6 minutes
Semi major axis: 6925 km
RCS: Unknown
Launch date: February 16, 2021
Source: United States (US)
Launch site: AIR FORCE EASTERN TEST RANGE (AFETR)
Your satellite tracking list
Your tracking list is empty




NASA's NSSDC Master Catalog

Two Line Element Set (TLE):
1 47675U 21012BH  24255.49768724 -.00004807  00000-0 -30420-3 0  9993
2 47675  53.0550 334.5921 0001942  99.1432 260.9776 15.06376130197725
Source of the keplerian elements: AFSPC